Regional Weather Roundup
Issued by NWS

Home | Current Version | Previous Version | Text Only | Print | Product List | Glossary Off
Versions: 1 2 3 4 5 6 7 8 9 10 11 12 13 14 15 16 17 18 19 20 21 22 23 24 25 26 27 28 29 30 31 32 33 34 35 36 37 38 39 40 41 42 43 44 45 46 47 48 49 50

000
ASUS43 KOAX 280402
RWRNE

WEATHER ROUNDUP FOR NEBRASKA
NATIONAL WEATHER SERVICE OMAHA NE
1100 PM CDT TUE JUN 27 2017

NOTES: SATELLITE DATA IS BEING USED TO AUGMENT CLOUD COVER ABOVE
       12000 FEET.
       "FAIR" INDICATES FEW OR NO CLOUDS BELOW 12,000 FEET WITH NO
       SIGNIFICANT WEATHER AND/OR OBSTRUCTIONS TO VISIBILITY.

  * THESE STATIONS DO NOT REPORT WEATHER SUCH AS RAIN...SNOW OR FOG.

NEZ001>004-019>022-054>056-280500-
NEBRASKA PANHANDLE

CITY           SKY/WX    TMP DP  RH WIND       PRES   REMARKS
SCOTTSBLUFF    CLOUDY    65  52  62 NW7       29.81R
ALLIANCE       CLOUDY    60  56  86 NW6       29.77R
CHADRON        CLOUDY    65  55  70 SW12      29.73R
GORDON         FAIR      65  55  70 S7        29.73F
KIMBALL        CLEAR     65  46  48 CALM      29.86R
SIDNEY         CLOUDY    64  51  62 N12       29.85R
$$

NEZ057>060-069>072-079>082-280500-
SOUTHWEST NEBRASKA

CITY           SKY/WX    TMP DP  RH WIND       PRES   REMARKS
NORTH PLATTE   CLOUDY    65  61  87 E14       29.69R
IMPERIAL       PTCLDY    80  45  28 S15G23    29.72R
LEXINGTON      CLOUDY    65  62  89 NE10      29.74F
MCCOOK         CLOUDY    74  56  53 N8        29.68F
OGALLALA       CLOUDY    73  56  54 N15       29.73R
$$

NEZ005>010-023>029-035>040-094-280500-
NORTH CENTRAL NEBRASKA

CITY           SKY/WX    TMP DP  RH WIND       PRES   REMARKS
VALENTINE      CLOUDY    72  51  47 SE7       29.71R
AINSWORTH      LGT RAIN  69  61  75 N30G37    29.73R
BROKEN BOW     CLOUDY    68  63  84 W6        29.70F
O`NEILL        CLOUDY    75  69  81 S15       29.66F THUNDER
ORD            LGT RAIN  66  59  78 W22G31    29.71R
THEDFORD       CLOUDY    74  53  46 W12G18    29.71R
$$

NEZ041-046>049-061>064-073>077-083>087-280500-
SOUTH CENTRAL NEBRASKA

CITY           SKY/WX    TMP DP  RH WIND       PRES   REMARKS
GRAND ISLAND   CLOUDY    79  71  76 S17G28    29.68R
AURORA         CLOUDY    79  70  73 S22G28    29.68F
HASTINGS       CLOUDY    83  62  49 S15G26    29.70R
HEBRON         CLOUDY    79  68  69 S18G25    29.72F
HOLDREGE       CLOUDY    71  58  64 NW24G36   29.78R THUNDER
KEARNEY *      CLOUDY    75  57  53 NW31G39   29.76R THUNDER
$$

NEZ011>018-030>034-042>045-280500-
NORTHEAST NEBRASKA

CITY           SKY/WX    TMP DP  RH WIND       PRES   REMARKS
NORFOLK        MOCLDY    75  66  73 SE17G31   29.67F
ALBION         CLOUDY    78  69  74 SE14      29.67F
BLAIR          CLOUDY    76  66  70 SE17G26   29.77F
FREMONT        CLOUDY    76  65  69 SE16G23   29.75F
TEKAMAH        CLOUDY    76  64  66 SE20      29.74F
WAYNE          MOCLDY    75  67  76 SE24      29.68F
$$

NEZ050>053-065>068-078-088>093-280500-
SOUTHEAST NEBRASKA

CITY           SKY/WX    TMP DP  RH WIND       PRES   REMARKS
LINCOLN        PTCLDY    77  65  66 S21G28    29.74F
OMAHA EPPLEY   CLOUDY    76  65  68 SE18      29.78S
BEATRICE       CLOUDY    76  66  69 S16G24    29.76S
FALLS CITY     CLEAR     74  66  76 SE15      29.81F
PLATTSMOUTH    CLOUDY    74  65  71 SE17G26   29.79S
$$

NEZ044-045-051>053-067-280500-
OMAHA AREA

CITY           SKY/WX    TMP DP  RH WIND       PRES   REMARKS
OMAHA EPPLEY   CLOUDY    76  65  68 SE18      29.78S
BLAIR          CLOUDY    76  66  70 SE17G26   29.77F
FREMONT        CLOUDY    76  65  69 SE16G23   29.75F
MILLARD        CLOUDY    77  68  73 SE16      29.77F
OFFUTT AFB     CLOUDY    74  65  73 SE15      29.78S
PLATTSMOUTH    CLOUDY    74  65  71 SE17G26   29.79S
WAHOO          FAIR      76  64  68 SE16G25   29.75F
$$




USA.gov is the U.S. government's official web portal to all federal, state and local government web resources and services.